| time (UTC) | temp F | wind direction | speed MPH | gust MPH | rain 1hr in | rain 24hr in | rain mn in | humidity % | barometer mb |
| 20260509224025 | 57 | 189 | 2.0 | 7.0 | 0.00 | 0.40 | 0.38 | 86 | 1009.2 |
| 20260509222025 | 57 | 228 | 1.0 | 3.0 | 0.00 | 0.42 | 0.38 | 86 | 1009.2 |
| 20260509221025 | 58 | 193 | 1.0 | 5.0 | 0.00 | 0.44 | 0.38 | 86 | 1009.3 |
| 20260509220024 | 57 | 180 | 2.0 | 5.0 | 0.00 | 0.44 | 0.38 | 87 | 1009.4 |
| 20260509214025 | 56 | 152 | 0.0 | 6.0 | 0.00 | 0.44 | 0.38 | 90 | 1009.4 |
| 20260509213024 | 56 | 195 | 1.0 | 5.0 | 0.00 | 0.44 | 0.38 | 91 | 1009.4 |
| 20260509212025 | 55 | 194 | 1.0 | 6.0 | 0.00 | 0.44 | 0.38 | 92 | 1009.5 |
| 20260509211025 | 55 | 172 | 2.0 | 3.0 | 0.00 | 0.44 | 0.38 | 92 | 1009.6 |
| 20260509210024 | 55 | 175 | 2.0 | 3.0 | 0.00 | 0.44 | 0.38 | 95 | 1009.7 |
| 20260509205025 | 54 | 179 | 2.0 | 5.0 | 0.00 | 0.44 | 0.38 | 94 | 1009.9 |
| 20260509204025 | 54 | 205 | 1.0 | 3.0 | 0.00 | 0.44 | 0.38 | 96 | 1010.0 |
| 20260509203025 | 53 | 183 | 1.0 | 3.0 | 0.00 | 0.44 | 0.38 | 95 | 1010.0 |
| 20260509201024 | 53 | 235 | 2.0 | 7.0 | 0.01 | 0.44 | 0.38 | 96 | 1010.3 |
| 20260509200025 | 53 | 218 | 1.0 | 6.0 | 0.02 | 0.44 | 0.38 | 96 | 1010.4 |
| 20260509195025 | 53 | 208 | 1.0 | 5.0 | 0.03 | 0.48 | 0.38 | 96 | 1010.4 |
| 20260509194025 | 53 | 200 | 1.0 | 5.0 | 0.04 | 0.48 | 0.38 | 96 | 1010.5 |
| 20260509193025 | 52 | 198 | 1.0 | 3.0 | 0.05 | 0.48 | 0.38 | 96 | 1010.4 |
| 20260509192024 | 51 | 161 | 0.0 | 3.0 | 0.05 | 0.47 | 0.37 | 95 | 1010.3 |
| 20260509191025 | 52 | 188 | 1.0 | 3.0 | 0.08 | 0.47 | 0.37 | 96 | 1010.5 |
| 20260509190025 | 51 | 204 | 2.0 | 5.0 | 0.08 | 0.46 | 0.36 | 95 | 1010.7 |
| 20260509185025 | 51 | 169 | 1.0 | 3.0 | 0.09 | 0.45 | 0.35 | 96 | 1010.8 |
| 20260509184024 | 51 | 205 | 1.0 | 6.0 | 0.09 | 0.44 | 0.34 | 95 | 1010.8 |
| 20260509183024 | 51 | 259 | 0.0 | 3.0 | 0.10 | 0.43 | 0.33 | 95 | 1011.0 |
| 20260509181026 | 51 | 158 | 2.0 | 5.0 | 0.07 | 0.39 | 0.29 | 95 | 1011.0 |
| 20260509174025 | 52 | 170 | 2.0 | 5.0 | 0.06 | 0.35 | 0.25 | 95 | 1010.9 |
| 20260509173025 | 52 | 200 | 2.0 | 6.0 | 0.06 | 0.33 | 0.23 | 95 | 1010.9 |
| 20260509172025 | 52 | 179 | 2.0 | 5.0 | 0.08 | 0.33 | 0.23 | 95 | 1011.0 |
| 20260509171025 | 52 | 214 | 2.0 | 5.0 | 0.08 | 0.32 | 0.22 | 95 | 1010.9 |
| 20260509170025 | 51 | 168 | 2.0 | 5.0 | 0.09 | 0.31 | 0.21 | 95 | 1010.9 |
| 20260509165025 | 51 | 166 | 1.0 | 3.0 | 0.09 | 0.30 | 0.20 | 95 | 1010.9 |
| 20260509164025 | 51 | 168 | 2.0 | 6.0 | 0.09 | 0.29 | 0.19 | 95 | 1010.9 |
| 20260509163025 | 51 | 170 | 3.0 | 6.0 | 0.08 | 0.27 | 0.17 | 94 | 1010.9 |
| 20260509162025 | 52 | 141 | 2.0 | 5.0 | 0.06 | 0.25 | 0.15 | 94 | 1011.1 |
| 20260509161025 | 52 | 189 | 0.0 | 3.0 | 0.06 | 0.24 | 0.14 | 94 | 1011.2 |
| 20260509155025 | 52 | 156 | 3.0 | 5.0 | 0.05 | 0.21 | 0.11 | 94 | 1011.3 |
| 20260509154025 | 51 | 190 | 2.0 | 5.0 | 0.05 | 0.20 | 0.10 | 94 | 1011.3 |
| 20260509153025 | 51 | 164 | 2.0 | 8.0 | 0.04 | 0.19 | 0.09 | 94 | 1011.2 |
| 20260509152025 | 51 | 160 | 3.0 | 5.0 | 0.05 | 0.19 | 0.09 | 94 | 1011.0 |
| 20260509150025 | 51 | 160 | 1.0 | 3.0 | 0.03 | 0.17 | 0.07 | 94 | 1011.2 |
| 20260509145025 | 51 | 185 | 0.0 | 0.0 | 0.02 | 0.16 | 0.06 | 94 | 1011.3 |
| 20260509144024 | 51 | 210 | 0.0 | 0.0 | 0.02 | 0.15 | 0.05 | 94 | 1011.4 |
| 20260509143025 | 51 | 189 | 0.0 | 0.0 | 0.02 | 0.15 | 0.05 | 94 | 1011.4 |
| 20260509142025 | 50 | 157 | 0.0 | 0.0 | 0.02 | 0.14 | 0.04 | 94 | 1011.2 |
| 20260509141025 | 50 | 157 | 0.0 | 0.0 | 0.02 | 0.14 | 0.04 | 94 | 1011.2 |
| 20260509140025 | 50 | 252 | 0.0 | 1.0 | 0.02 | 0.14 | 0.04 | 94 | 1011.2 |
| 20260509135024 | 50 | 322 | 0.0 | 0.0 | 0.03 | 0.14 | 0.04 | 95 | 1011.2 |
| 20260509134025 | 50 | 322 | 0.0 | 0.0 | 0.02 | 0.13 | 0.03 | 95 | 1011.5 |
| 20260509133025 | 49 | 322 | 0.0 | 2.0 | 0.02 | 0.13 | 0.03 | 94 | 1011.5 |
| 20260509132025 | 49 | 322 | 0.0 | 2.0 | 0.01 | 0.12 | 0.02 | 94 | 1011.5 |
| 20260509131025 | 49 | 311 | 0.0 | 0.0 | 0.01 | 0.12 | 0.02 | 94 | 1011.6 |
| 20260509130025 | 49 | 312 | 0.0 | 2.0 | 0.01 | 0.12 | 0.02 | 93 | 1011.5 |
| 20260509124024 | 49 | 312 | 0.0 | 2.0 | 0.00 | 0.11 | 0.01 | 93 | 1011.1 |
| 20260509123024 | 49 | 312 | 0.0 | 2.0 | 0.00 | 0.11 | 0.01 | 92 | 1011.1 |
| 20260509122025 | 50 | 324 | 0.0 | 0.0 | 0.00 | 0.11 | 0.01 | 92 | 1011.1 |
| 20260509121025 | 50 | 324 | 0.0 | 2.0 | 0.00 | 0.11 | 0.01 | 92 | 1010.9 |
| 20260509120025 | 50 | 314 | 1.0 | 3.0 | 0.00 | 0.11 | 0.01 | 90 | 1010.9 |
| 20260509115025 | 50 | 27 | 0.0 | 2.0 | 0.00 | 0.11 | 0.01 | 90 | 1010.8 |
| 20260509114025 | 49 | 62 | 0.0 | 2.0 | 0.01 | 0.11 | 0.01 | 89 | 1010.8 |
| 20260509113025 | 49 | 116 | 0.0 | 2.0 | 0.01 | 0.11 | 0.01 | 89 | 1010.8 |
| 20260509112026 | 49 | 108 | 1.0 | 6.0 | 0.01 | 0.11 | 0.01 | 89 | 1011.0 |
| 20260509111025 | 49 | 127 | 0.0 | 2.0 | 0.01 | 0.11 | 0.01 | 89 | 1011.0 |
| 20260509110025 | 49 | 102 | 1.0 | 3.0 | 0.01 | 0.12 | 0.01 | 90 | 1010.9 |
| 20260509105025 | 49 | 95 | 1.0 | 2.0 | 0.01 | 0.12 | 0.01 | 90 | 1010.9 |
| 20260509104025 | 49 | 97 | 1.0 | 3.0 | 0.00 | 0.11 | 0.00 | 89 | 1010.9 |
| 20260509103025 | 48 | 122 | 1.0 | 3.0 | 0.00 | 0.11 | 0.00 | 90 | 1010.9 |
| 20260509102025 | 48 | 324 | 0.0 | 0.0 | 0.00 | 0.11 | 0.00 | 94 | 1011.0 |
| 20260509101025 | 48 | 324 | 0.0 | 0.0 | 0.00 | 0.11 | 0.00 | 94 | 1011.1 |
| 20260509094025 | 48 | 29 | 1.0 | 2.0 | 0.00 | 0.11 | 0.00 | 91 | 1011.2 |
| 20260509093025 | 48 | 29 | 0.0 | 2.0 | 0.00 | 0.11 | 0.00 | 91 | 1011.2 |
| 20260509092025 | 49 | 29 | 0.0 | 3.0 | 0.00 | 0.11 | 0.00 | 91 | 1011.2 |
| 20260509091025 | 49 | 62 | 0.0 | 2.0 | 0.00 | 0.11 | 0.00 | 90 | 1011.2 |
| 20260509090025 | 49 | 111 | 0.0 | 3.0 | 0.00 | 0.11 | 0.00 | 90 | 1011.3 |
| 20260509085025 | 49 | 93 | 1.0 | 3.0 | 0.00 | 0.11 | 0.00 | 90 | 1011.3 |
| 20260509084025 | 49 | 85 | 2.0 | 5.0 | 0.00 | 0.11 | 0.00 | 90 | 1011.3 |
| 20260509083025 | 49 | 124 | 2.0 | 3.0 | 0.00 | 0.11 | 0.00 | 90 | 1011.4 |
| 20260509082025 | 49 | 117 | 1.0 | 2.0 | 0.00 | 0.11 | 0.00 | 89 | 1011.6 |
| 20260509081025 | 49 | 157 | 1.0 | 2.0 | 0.00 | 0.11 | 0.00 | 89 | 1011.9 |
| 20260509080025 | 48 | 164 | 1.0 | 3.0 | 0.00 | 0.11 | 0.00 | 92 | 1012.1 |
| 20260509074025 | 48 | 297 | 0.0 | 0.0 | 0.00 | 0.11 | 0.00 | 93 | 1012.3 |
| 20260509073025 | 49 | 296 | 0.0 | 2.0 | 0.00 | 0.11 | 0.00 | 92 | 1012.1 |
| 20260509072025 | 49 | 132 | 0.0 | 0.0 | 0.00 | 0.11 | 0.00 | 91 | 1012.1 |
| 20260509071025 | 49 | 132 | 0.0 | 0.0 | 0.00 | 0.11 | 0.00 | 92 | 1011.9 |
| 20260509070025 | 49 | 132 | 0.0 | 0.0 | 0.00 | 0.11 | 0.00 | 93 | 1012.2 |
| 20260509065025 | 49 | 132 | 0.0 | 0.0 | 0.00 | 0.11 | 0.00 | 93 | 1012.4 |
| 20260509063025 | 49 | 132 | 0.0 | 0.0 | 0.00 | 0.11 | 0.00 | 93 | 1012.5 |
| 20260509062024 | 49 | 133 | 0.0 | 0.0 | 0.00 | 0.11 | 0.00 | 92 | 1012.6 |
| 20260509061025 | 49 | 132 | 0.0 | 0.0 | 0.00 | 0.11 | 0.00 | 93 | 1012.7 |
| 20260509060025 | 49 | 169 | 0.0 | 0.0 | 0.00 | 0.11 | 0.00 | 92 | 1012.8 |
| 20260509054025 | 49 | 169 | 0.0 | 1.0 | 0.00 | 0.11 | 0.00 | 93 | 1013.3 |
| 20260509053025 | 48 | 170 | 0.0 | 1.0 | 0.00 | 0.11 | 0.00 | 94 | 1013.5 |
| 20260509052025 | 48 | 354 | 0.0 | 0.0 | 0.00 | 0.11 | 0.00 | 93 | 1013.5 |
| 20260509051024 | 48 | 354 | 0.0 | 3.0 | 0.00 | 0.11 | 0.00 | 92 | 1013.5 |
| 20260509050025 | 49 | 339 | 0.0 | 3.0 | 0.00 | 0.11 | 0.00 | 92 | 1013.0 |
| 20260509045025 | 49 | 146 | 2.0 | 3.0 | 0.00 | 0.11 | 0.00 | 91 | 1012.8 |
| 20260509044025 | 49 | 157 | 1.0 | 3.0 | 0.00 | 0.11 | 0.00 | 91 | 1012.7 |
| 20260509042025 | 49 | 151 | 0.0 | 0.0 | 0.00 | 0.13 | 0.00 | 90 | 1012.5 |
| 20260509041025 | 49 | 151 | 0.0 | 0.0 | 0.00 | 0.13 | 0.00 | 90 | 1012.4 |
| 20260509040025 | 49 | 151 | 0.0 | 0.0 | 0.00 | 0.13 | 0.00 | 90 | 1012.6 |
| 20260509035025 | 50 | 151 | 0.0 | 0.0 | 0.00 | 0.13 | 0.13 | 90 | 1012.9 |
| 20260509034025 | 50 | 150 | 0.0 | 1.0 | 0.01 | 0.13 | 0.13 | 89 | 1013.1 |
| 20260509033026 | 50 | 168 | 0.0 | 0.0 | 0.01 | 0.13 | 0.13 | 88 | 1013.0 |
| 20260509032025 | 50 | 168 | 0.0 | 0.0 | 0.01 | 0.13 | 0.13 | 88 | 1012.9 |
| 20260509030025 | 50 | 168 | 0.0 | 0.0 | 0.01 | 0.13 | 0.13 | 89 | 1013.1 |
| 20260509025024 | 50 | 168 | 0.0 | 1.0 | 0.01 | 0.13 | 0.13 | 87 | 1013.3 |
| 20260509024025 | 50 | 168 | 0.0 | 2.0 | 0.00 | 0.14 | 0.12 | 87 | 1013.4 |
| 20260509023025 | 50 | 164 | 0.0 | 1.0 | 0.00 | 0.14 | 0.12 | 87 | 1013.4 |
| 20260509022025 | 50 | 164 | 0.0 | 2.0 | 0.00 | 0.14 | 0.12 | 85 | 1013.1 |
| 20260509021025 | 50 | 160 | 0.0 | 0.0 | 0.00 | 0.14 | 0.12 | 85 | 1012.9 |
| 20260509020025 | 50 | 161 | 0.0 | 0.0 | 0.00 | 0.14 | 0.12 | 85 | 1012.8 |
| 20260509015025 | 50 | 160 | 0.0 | 0.0 | 0.00 | 0.14 | 0.12 | 84 | 1012.9 |
| 20260509014025 | 50 | 161 | 0.0 | 0.0 | 0.00 | 0.14 | 0.12 | 84 | 1012.9 |
| 20260509013025 | 50 | 161 | 1.0 | 2.0 | 0.00 | 0.14 | 0.12 | 85 | 1012.8 |
| 20260509012025 | 49 | 156 | 0.0 | 0.0 | 0.00 | 0.14 | 0.12 | 86 | 1012.7 |
| 20260509011025 | 49 | 272 | 0.0 | 0.0 | 0.00 | 0.14 | 0.12 | 88 | 1012.6 |
| 20260509010025 | 49 | 272 | 0.0 | 0.0 | 0.00 | 0.14 | 0.12 | 88 | 1012.6 |
| 20260509004025 | 50 | 273 | 0.0 | 0.0 | 0.00 | 0.14 | 0.12 | 89 | 1012.3 |
| 20260509003025 | 50 | 273 | 0.0 | 0.0 | 0.00 | 0.14 | 0.12 | 89 | 1012.3 |
| 20260509001026 | 50 | 272 | 0.0 | 0.0 | 0.00 | 0.14 | 0.12 | 89 | 1012.2 |
| 20260509000025 | 50 | 272 | 0.0 | 0.0 | 0.01 | 0.14 | 0.12 | 90 | 1012.1 |
| 20260508235025 | 50 | 273 | 0.0 | 0.0 | 0.01 | 0.14 | 0.12 | 90 | 1011.9 |
| 20260508234025 | 50 | 272 | 0.0 | 0.0 | 0.01 | 0.14 | 0.12 | 89 | 1011.7 |
| 20260508232025 | 51 | 272 | 0.0 | 1.0 | 0.03 | 0.14 | 0.12 | 87 | 1011.8 |
| 20260508225025 | 51 | 345 | 1.0 | 3.0 | 0.04 | 0.13 | 0.11 | 84 | 1011.8 |